[[{"header":{"parameterUnit":"m.s-1","parameterCategory":1,"la1":30.2991,"la2":30.254,"lo1":-89.0895,"lo2":-89.0444,"dy":0.0017,"dx":0.0017,"nx":28,"ny":28,"refTime":"2023-07-21T21:00:00:Z","depth":0,"parameterNumber":2,"parameterNumberName":"U-component_of_WINDS"},"data":[0,0,0,0,0,0,0,0,0,0,0,0,0,0,0,0,0,0,0,0,0,0,0,0,0,0,0,0,0,0,0,0,0,0,0,0,0,0,0,0,0,0,0,0,0,0,0,0,0,0,0,0,0,0,0,0,0,0,2.725,2.7252,0,2.7365,2.7366,2.7368,2.7357,2.7355,2.7353,2.7352,2.7468,2.7472,2.7477,0,0,0,0,0,0,0,0,0,0,0,0,0,2.7019,2.7023,2.725,2.7252,2.7253,2.7365,2.7366,2.7368,2.7357,2.7355,2.7353,2.7351,2.7466,2.7472,2.7477,0,0,0,0,0,0,0,0,0,0,0,0,0,2.7125,2.7025,2.725,2.7261,2.7263,2.7364,2.7366,2.7368,2.7358,2.7355,2.7352,2.735,2.7464,2.7471,2.7478,2.7575,0,0,2.75,2.7503,0,0,0,0,0,0,0,0,2.7119,2.7134,2.7258,2.7261,2.7263,2.7344,2.7327,2.7438,2.7358,2.7322,2.7352,2.7349,2.7429,2.7438,2.7466,2.7581,2.7585,2.7501,2.7505,2.7508,2.751,0,0,0,0,0,0,0,2.7112,2.7129,2.7296,2.726,2.7263,2.726,2.7272,2.7348,2.7389,2.7325,2.7324,2.7338,2.7429,2.7459,2.7468,2.7587,2.75,2.7507,2.7511,2.7514,2.7784,2.7787,0,0,0,0,0,0,2.7102,2.7123,2.7292,2.7299,2.7183,2.7266,2.7279,2.7321,2.7388,2.7395,2.734,2.7337,2.7448,2.746,2.7472,2.7588,2.7508,2.7515,2.7519,2.7781,2.7785,2.7788,0,0,0,0,0,0,2.7097,2.7117,2.7287,2.7211,2.7232,2.7273,2.7319,2.7324,2.7354,2.7399,2.7406,2.7363,2.7446,2.7462,2.7549,2.7592,2.7518,2.7524,2.7778,2.7782,2.7786,2.7821,0,0,0,0,0,0,2.7091,2.7116,2.7154,2.7212,2.7236,2.7363,2.7322,2.7329,2.7366,2.7363,2.7423,2.743,2.7446,2.7538,2.7556,2.76,2.753,2.7774,2.778,2.7785,2.7817,2.7826,2.7835,0,0,0,0,0,2.7082,2.7159,2.7156,2.7176,2.7285,2.7366,2.738,2.7396,2.737,2.7408,2.7436,2.7428,2.7585,2.7547,2.7567,2.7614,2.7771,2.7778,2.7785,2.7812,2.7824,2.7835,0,0,0,0,0,0,2.7105,2.7167,2.7164,2.7262,2.7309,2.7364,2.7412,2.7409,2.7464,2.7459,2.7477,2.749,2.7577,2.7605,2.7562,2.771,2.7674,2.7685,2.7689,2.7701,2.771,2.77,2.7536,0,0,0,0,0,2.7122,2.7183,2.7234,2.7315,2.7339,2.7371,2.7407,2.7416,2.7465,2.7484,2.752,2.7567,2.7626,2.7665,2.7723,2.7821,2.7832,2.7863,2.7872,2.7879,2.7888,2.7939,2.7952,2.7809,2.7809,2.7809,0,0,2.7156,2.7198,2.7235,2.7321,2.7358,2.7419,2.7388,2.7455,2.7501,2.7494,2.7578,2.7605,2.7659,2.7751,2.7793,2.7777,2.793,2.7888,2.7893,2.7898,2.7947,2.796,2.7972,2.7814,2.7813,2.7812,0,0,2.725,2.7289,2.736,2.7398,2.7454,2.7475,2.7492,2.7547,2.7565,2.7649,2.7645,2.7699,2.7802,2.784,2.7872,2.7979,2.7972,2.7997,2.8044,2.8094,2.8105,2.8115,2.8151,2.8164,2.8006,2.8006,2.8006,0,2.7286,2.738,2.7397,2.7464,2.7501,2.7498,2.7569,2.7604,2.7677,2.7701,2.7682,2.7809,2.7846,2.7945,2.7971,2.7998,2.8016,2.799,2.8102,2.8113,2.8122,2.8156,2.817,2.8008,2.8008,2.8008,2.8008,0,2.7419,2.7484,2.7535,2.7604,2.7647,2.7716,2.7742,2.7782,2.7787,2.781,2.7894,2.7937,2.8002,2.8027,2.8032,2.8126,2.8114,2.8098,2.8062,2.8138,2.817,2.8183,2.8012,2.8011,2.801,2.801,0,0,2.7531,2.7608,2.7626,2.7657,2.7718,2.7768,2.7836,2.7899,2.7933,2.7983,2.8038,2.8125,2.811,2.8147,2.8157,2.8201,2.8279,2.8179,2.8181,2.8194,2.8382,2.8392,2.8407,2.8275,2.8278,2.828,2.8377,0,2.763,2.775,2.7767,2.7873,2.7931,2.7929,2.7988,2.8031,2.8053,2.8106,2.813,2.819,2.8168,2.8189,2.8233,2.826,2.8316,2.8254,2.8326,2.8328,2.831,2.8424,2.8436,2.8525,2.839,2.8392,2.8394,0,2.7761,2.7814,2.7925,2.7977,2.8002,2.8054,2.8113,2.8163,2.8211,2.8225,2.8265,2.8269,2.8337,2.8299,2.8393,2.8349,2.838,2.8398,2.8401,2.8407,2.8364,2.8431,2.8554,2.8567,2.8414,2.8413,2.8411,0,2.7828,2.7927,2.8006,2.8033,2.8095,2.8132,2.8159,2.8205,2.8241,2.8292,2.8315,2.8374,2.8405,2.845,2.8468,2.844,2.856,2.8524,2.8571,2.857,2.8595,2.8593,2.8722,2.8618,2.8618,2.8618,2.8617,0,2.7935,2.8003,2.8037,2.8085,2.8161,2.8178,2.8252,2.8278,2.8319,2.8371,2.8373,2.8421,2.8444,2.8496,2.8511,2.8585,2.86,2.8611,2.8613,2.861,2.8608,2.8628,2.8622,2.8621,2.862,2.862,2.8619,0,2.8023,2.8049,2.8134,2.8186,2.82,2.8253,2.8297,2.8343,2.8365,2.8431,2.8447,2.8481,2.8542,2.8565,2.864,2.865,2.8734,2.8733,2.8718,2.8718,2.8762,2.8757,2.8908,2.8928,2.8812,2.8813,2.8814,0,2.8089,2.8141,2.8198,2.8233,2.8262,2.8319,2.8355,2.8375,2.8413,2.847,2.8509,2.857,2.8619,2.8716,2.8747,2.8803,2.8802,2.8851,2.8811,2.8804,2.88,2.8796,2.88,2.8858,2.8859,2.886,2.8861,0,2.8202,2.8211,2.8265,2.8322,2.8366,2.8412,2.8457,2.8486,2.8511,2.8554,2.8616,2.8654,2.873,2.8789,2.8847,2.8874,2.8871,2.8874,2.8887,2.8883,2.8871,2.8875,2.8736,2.887,2.8869,2.8868,2.8868,2.8868,2.8279,2.8324,2.8371,2.8429,2.8465,2.8506,2.8551,2.8578,2.8631,2.8694,2.8702,2.8768,2.8813,2.889,2.8919,2.897,2.8957,2.8977,2.8982,2.8986,2.8988,2.8864,2.8981,2.8981,2.8981,2.8981,2.8981,0,2.839,2.842,2.8474,2.8536,2.8581,2.8576,2.8624,2.8662,2.8721,2.8763,2.8811,2.8882,2.8939,2.8974,2.9031,2.9065,2.9065,2.9079,2.9076,2.9081,2.8998,2.8979,2.9078,2.9078,2.9078,2.9078,2.9078,2.9078,2.8453,2.8528,2.8543,2.8635,2.8664,2.8729,2.8757,2.8795,2.8828,2.8906,2.8954,2.8976,2.9015,2.9075,2.9126,2.9135,2.9155,2.917,2.9177,2.9098,2.9088,2.9078,2.9061,2.9175,2.9175,2.9256,2.9257,2.9257]},{"header":{"parameterUnit":"m.s-1","parameterCategory":1,"la1":30.2991,"la2":30.254,"lo1":-89.0895,"lo2":-89.0444,"dy":0.0017,"dx":0.0017,"nx":28,"ny":28,"refTime":"2023-07-21T21:00:00:Z","depth":0,"parameterNumber":3,"parameterNumberName":"V-component_of_WINDS"},"data":[0,0,0,0,0,0,0,0,0,0,0,0,0,0,0,0,0,0,0,0,0,0,0,0,0,0,0,0,0,0,0,0,0,0,0,0,0,0,0,0,0,0,0,0,0,0,0,0,0,0,0,0,0,0,0,0,0,0,5.496,5.4961,0,5.5028,5.5029,5.503,5.4968,5.4966,5.4963,5.4961,5.5023,5.5027,5.5031,0,0,0,0,0,0,0,0,0,0,0,0,0,5.477,5.4774,5.496,5.4961,5.4962,5.5028,5.5029,5.503,5.4969,5.4966,5.4963,5.496,5.5022,5.5027,5.5031,0,0,0,0,0,0,0,0,0,0,0,0,0,5.4847,5.4776,5.496,5.494,5.4939,5.5028,5.5029,5.503,5.4969,5.4966,5.4962,5.4958,5.502,5.5026,5.5032,5.5143,0,0,5.505,5.5053,0,0,0,0,0,0,0,0,5.4843,5.4854,5.4942,5.4941,5.494,5.4986,5.4985,5.5068,5.497,5.4957,5.4961,5.4957,5.5013,5.502,5.504,5.5146,5.5148,5.5051,5.5054,5.5057,5.5059,0,0,0,0,0,0,0,5.4837,5.4851,5.4987,5.4943,5.4942,5.4925,5.4931,5.5,5.5005,5.4958,5.4954,5.4963,5.5012,5.5035,5.5041,5.5149,5.5051,5.5056,5.5059,5.5062,5.5346,5.535,0,0,0,0,0,0,5.4835,5.4847,5.4985,5.4989,5.4882,5.4931,5.4939,5.4975,5.5004,5.5005,5.4966,5.496,5.5026,5.5034,5.5043,5.5173,5.5057,5.5062,5.5066,5.5342,5.5347,5.5352,0,0,0,0,0,0,5.4832,5.4848,5.4982,5.4917,5.4932,5.4938,5.498,5.4978,5.5001,5.5011,5.501,5.4989,5.5024,5.5035,5.5118,5.5175,5.5065,5.507,5.5338,5.5344,5.535,5.5436,0,0,0,0,0,0,5.4826,5.4847,5.4891,5.4918,5.4936,5.5059,5.4983,5.4982,5.5012,5.5005,5.5032,5.5032,5.5022,5.511,5.5124,5.5181,5.5075,5.5333,5.5341,5.5348,5.5428,5.5444,5.5458,0,0,0,0,0,5.482,5.4912,5.4894,5.4911,5.4992,5.5062,5.5072,5.506,5.5017,5.506,5.5066,5.5032,5.5167,5.5119,5.5135,5.5194,5.5329,5.5338,5.5347,5.5421,5.5441,5.5457,0,0,0,0,0,0,5.4889,5.4915,5.4895,5.4999,5.5029,5.5052,5.5106,5.5081,5.5122,5.5113,5.5094,5.5101,5.5189,5.52,5.5146,5.5302,5.524,5.5253,5.5291,5.531,5.5325,5.532,5.508,0,0,0,0,0,5.4917,5.4974,5.4993,5.5082,5.5099,5.51,5.513,5.5118,5.5147,5.5159,5.5171,5.5199,5.5247,5.5279,5.5324,5.5429,5.5433,5.5478,5.5493,5.5505,5.5515,5.557,5.5589,5.5381,5.5381,5.5381,0,0,5.4974,5.4995,5.5032,5.5097,5.5119,5.5176,5.5111,5.5175,5.5216,5.5168,5.5248,5.5258,5.5287,5.5382,5.5424,5.5393,5.5574,5.5516,5.5526,5.553,5.5581,5.5601,5.5618,5.5387,5.5386,5.5385,0,0,5.5107,5.513,5.5207,5.523,5.5265,5.5265,5.5283,5.531,5.5315,5.5396,5.536,5.5408,5.5492,5.5514,5.5537,5.5678,5.5647,5.5693,5.577,5.5824,5.584,5.5854,5.5903,5.5921,5.5704,5.5704,5.5704,0,5.5173,5.5261,5.5249,5.5315,5.5344,5.5305,5.5381,5.5403,5.545,5.5469,5.5435,5.554,5.5557,5.5655,5.569,5.5709,5.5728,5.5689,5.5839,5.5854,5.5867,5.5913,5.5932,5.5709,5.5708,5.5708,5.5707,0,5.5339,5.54,5.5457,5.5506,5.5541,5.5612,5.5608,5.5644,5.5629,5.5632,5.5713,5.5733,5.578,5.5803,5.5788,5.5899,5.5879,5.5843,5.578,5.5892,5.5935,5.5953,5.5717,5.5715,5.5713,5.5712,0,0,5.5517,5.5559,5.558,5.5601,5.5636,5.5682,5.5749,5.5799,5.5829,5.5862,5.5917,5.5989,5.5956,5.5981,5.5968,5.6015,5.6124,5.5973,5.5973,5.5999,5.6245,5.6272,5.6292,5.6104,5.6108,5.611,5.6242,0,5.5651,5.5772,5.5763,5.5876,5.5931,5.5895,5.5953,5.598,5.5984,5.6029,5.6033,5.6084,5.6037,5.6052,5.6097,5.6101,5.6173,5.6092,5.6153,5.6155,5.6146,5.6315,5.6344,5.6467,5.6259,5.6262,5.6264,0,5.5823,5.5865,5.5984,5.601,5.6033,5.6086,5.613,5.6174,5.6202,5.6202,5.6231,5.621,5.6275,5.6213,5.6302,5.6247,5.6271,5.6277,5.6281,5.6285,5.6216,5.6323,5.6506,5.6525,5.6291,5.6289,5.6287,0,5.5939,5.6025,5.6107,5.6126,5.6159,5.6197,5.6212,5.6237,5.6267,5.6304,5.6322,5.6366,5.639,5.6423,5.6413,5.6369,5.6503,5.644,5.6503,5.6503,5.6532,5.653,5.6721,5.655,5.655,5.6549,5.6549,0,5.6089,5.6163,5.616,5.621,5.6291,5.6279,5.6359,5.6368,5.6391,5.644,5.6411,5.6458,5.6443,5.6488,5.648,5.6554,5.6565,5.6565,5.6562,5.6567,5.6567,5.6582,5.6572,5.6554,5.6553,5.6552,5.6551,0,5.6232,5.6234,5.6321,5.6345,5.6353,5.6411,5.6431,5.6477,5.6479,5.6542,5.6556,5.6558,5.661,5.6604,5.6661,5.6656,5.6747,5.6734,5.6739,5.6735,5.6798,5.6791,5.7004,5.703,5.6843,5.6845,5.6847,0,5.6327,5.6384,5.6415,5.6447,5.6465,5.6518,5.6548,5.6537,5.657,5.6606,5.6647,5.6697,5.6736,5.6819,5.6825,5.6868,5.6855,5.6926,5.6861,5.6864,5.6854,5.6851,5.6855,5.6939,5.6941,5.6942,5.6944,0,5.6495,5.6493,5.6539,5.6587,5.6624,5.666,5.6692,5.672,5.6712,5.6749,5.6803,5.6834,5.6893,5.6941,5.6982,5.6994,5.6967,5.6965,5.6981,5.6986,5.6986,5.6986,5.6772,5.696,5.6958,5.6957,5.6956,5.6955,5.6616,5.6664,5.6693,5.6746,5.677,5.68,5.6845,5.6853,5.6899,5.6947,5.6937,5.6997,5.7022,5.7075,5.7091,5.7136,5.711,5.7134,5.714,5.7146,5.7152,5.698,5.7143,5.7143,5.7143,5.7142,5.7142,0,5.6781,5.6798,5.6847,5.6894,5.6935,5.6909,5.6943,5.6978,5.7032,5.7058,5.7098,5.7159,5.7205,5.7215,5.7259,5.7293,5.7282,5.7305,5.7301,5.7304,5.7174,5.7155,5.7313,5.7313,5.7313,5.7313,5.7313,5.7313,5.6871,5.6951,5.6952,5.7042,5.7058,5.7119,5.714,5.7167,5.7189,5.7259,5.7299,5.7305,5.7324,5.7369,5.741,5.7412,5.7428,5.7456,5.7453,5.7331,5.7314,5.7297,5.7279,5.7461,5.7461,5.7579,5.758,5.7581]}]]